Location: Budrione
(44.8167°N, 10.8667°E)
Time: 23:06:54
(UTC+00:00)

Daily predictions for brighter satellites

Satellite Brightness Start Highest point End
(mag) Time Altitude Azimuth Time Altitude Azimuth Time Altitude Azimuth
Cosmos 1269 Rocket 4.0 15:58:03 10° NNW 16:03:23 83° ENE 16:08:40 10° SSE
Cosmos 1812 3.9 16:05:47 10° SE 16:08:37 21° E 16:11:28 10° NE
USA 276 1.4 16:12:25 10° WSW 16:14:49 83° NNW 16:17:13 10° ENE
CZ-2C R/B 2.6 16:11:27 10° SSE 16:14:57 61° ENE 16:18:31 10° N
YAOGAN 11 4.2 16:11:08 10° NNE 16:15:40 64° ESE 16:20:11 10° S
Cosmos 2263 Rocket 2.2 16:10:20 10° SSW 16:15:52 82° ESE 16:21:29 10° NNE
Cosmos 1844 Rocket 4.1 16:13:02 10° SE 16:16:31 17° E 16:20:02 10° ENE
Cosmos 1437 Rocket 3.1 16:14:22 10° NNW 16:18:05 66° W 16:21:49 10° S
Nadezhda 4 Rocket 4.3 16:13:48 10° SSE 16:19:35 45° E 16:25:21 10° NNE
CORIOLIS 4.2 16:14:33 10° SSE 16:19:45 56° ENE 16:25:01 10° N
ERS-2 2.5 16:18:34 10° S 16:21:26 51° WSW 16:24:18 10° NNW
Cosmos 2227 Rocket 3.7 16:19:11 10° WSW 16:24:16 33° NW 16:29:23 10° N
[s.n.58448] 3.7 16:22:20 10° W 16:24:46 38° SSW 16:27:12 10° ESE
USA 307 2.6 16:21:14 10° NW 16:25:06 65° NNE 16:28:52 10° ESE
[s.n.58449] 3.7 16:25:01 10° W 16:27:23 36° SSW 16:29:44 10° SE
Cosmos 44 4.0 16:22:56 10° NW 16:28:17 67° WSW 16:33:20 10° SSE
Meteor 1-20 Rocket 4.5 16:23:03 10° N 16:28:23 45° ENE 16:33:47 10° SSE
[s.n.58459] 3.7 16:26:07 10° W 16:28:32 37° SSW 16:30:58 10° SE
SAR-Lupe-2 3.9 16:25:05 10° S 16:28:38 71° WSW 16:32:13 10° NNW
Cosmos 1140 Rocket 3.7 16:23:54 10° N 16:28:55 48° ENE 16:33:53 10° SE
[s.n.58458] 3.7 16:26:48 10° W 16:29:14 37° SSW 16:31:41 10° SE
[s.n.58456] 3.8 16:27:37 10° W 16:30:04 36° SSW 16:32:30 10° SE
[s.n.58447] 3.7 16:27:58 10° W 16:30:22 36° SSW 16:32:45 10° SE
[s.n.58457] 3.8 16:28:23 10° W 16:30:50 36° SSW 16:33:16 10° SE
[s.n.58455] 3.8 16:29:09 10° W 16:31:36 36° SSW 16:34:02 10° SE
[s.n.58454] 3.8 16:29:55 10° W 16:32:22 36° SSW 16:34:48 10° SE
[s.n.58453] 3.8 16:30:42 10° W 16:33:09 35° SSW 16:35:34 10° SE
[s.n.58452] 3.8 16:31:25 10° W 16:33:52 35° SSW 16:36:18 10° SE
[s.n.58451] 3.8 16:32:12 10° W 16:34:39 35° SSW 16:37:04 10° SE
Cosmos 1666 2.4 16:31:46 10° N 16:35:19 88° E 16:38:50 10° S
[s.n.58450] 3.9 16:32:58 10° W 16:35:24 35° SSW 16:37:50 10° SE
[s.n.58446] 3.9 16:35:16 10° W 16:37:42 34° SSW 16:40:08 10° SE
[s.n.58445] 3.9 16:36:04 10° W 16:38:29 34° SSW 16:40:55 10° SE
Cosmos 1603 3.9 16:33:27 10° NNW 16:38:56 46° ENE 16:44:19 10° SE
[s.n.58444] 3.9 16:36:50 10° W 16:39:16 33° SSW 16:41:42 10° SE
DMSP B5D2-2 4.1 16:34:30 10° NNE 16:39:44 86° WNW 16:44:57 10° SSW
[s.n.58443] 3.9 16:37:35 10° W 16:40:01 33° SSW 16:42:26 10° SE
[s.n.58442] 4.0 16:38:24 10° W 16:40:50 33° SSW 16:43:16 10° SE
[s.n.58441] 4.0 16:39:13 10° W 16:41:39 33° SSW 16:44:04 10° SE
Meteor 1-31 Rocket 2.5 16:38:10 10° SSE 16:41:50 74° ENE 16:45:34 10° N
[s.n.58440] 4.0 16:39:56 10° W 16:42:22 32° SSW 16:44:47 10° SE
Cosmos 1076 Rocket 4.4 16:38:18 10° NNW 16:42:35 54° W 16:46:48 10° S
[s.n.58439] 4.0 16:40:45 10° W 16:43:10 32° SSW 16:45:36 10° SE
[s.n.58437] 4.0 16:41:30 10° W 16:43:56 32° SSW 16:46:21 10° SE
[s.n.58438] 4.0 16:42:16 10° W 16:44:42 32° SSW 16:47:06 10° SE
USA 306 2.6 16:46:00 10° WNW 16:48:03 38° SW 16:50:01 10° SSE
SL-08 R/B 4.4 16:46:50 16° NE 16:49:06 23° E 16:52:46 10° SSE
SL-16 R/B 4.2 16:46:41 10° NW 16:51:40 32° WSW 16:56:37 10° SSW
ATLAS CENTAUR R/B 2.8 16:47:38 10° NW 16:52:01 83° NE 17:00:43 10° SE
Cosmos 1602 4.0 16:50:29 10° NNW 16:54:11 67° W 16:57:53 10° S
SL-8 R/B 3.9 16:51:28 10° WNW 16:56:15 74° SSW 17:00:59 10° ESE
RESURS DK-1 4.0 16:53:59 10° N 16:56:12 17° NE 16:56:12 17° NE
USA 305 2.5 16:53:01 10° NW 16:56:53 89° ENE 17:00:25 12° SE
CZ-4B R/B 3.4 16:52:43 10° SSE 16:57:42 61° ENE 17:02:35 10° N
Cosmos 1782 3.0 16:56:40 10° SSE 17:00:22 43° E 17:03:03 17° NNE
Cosmos 1812 Rocket 3.4 16:56:25 10° S 17:00:43 75° E 17:05:05 10° NNE
Cosmos 1943 3.2 16:57:16 10° NNW 17:02:56 85° WSW 17:08:35 10° SSE
Helios 1A 2.9 16:58:59 10° NNE 17:03:08 65° ESE 17:07:14 10° S
SMAP 3.8 16:59:55 10° S 17:04:28 55° W 17:09:04 10° NNW
ATLAS 2AS CENTAUR R/B 3.1 16:58:37 10° NNW 17:05:05 39° NE 17:09:08 20° E
NOAA 6 4.0 17:00:32 10° SSE 17:05:32 56° ENE 17:10:34 10° N
Radarsat Rocket 3.9 17:06:20 10° SSE 17:12:03 65° ENE 17:18:05 10° NNW
Cosmos 407 Rocket 3.4 17:09:07 10° NNW 17:14:19 85° ENE 17:19:25 10° SSE
ISS -1.3 17:17:44 10° W 17:20:28 23° SW 17:23:10 10° SSE
Cosmos 2251 Rocket 3.7 17:16:43 10° NNW 17:22:04 79° WSW 17:27:26 10° SSE
Cosmos 220 Rocket 4.0 17:21:37 10° NNW 17:25:52 55° ENE 17:27:53 28° SE
Cosmos 2056 Rocket 3.7 17:21:24 10° S 17:26:34 51° ESE 17:28:45 32° NE
SME Rocket 4.5 17:21:13 10° SE 17:26:42 50° ENE 17:34:59 10° N
COSMOS 2455 3.8 17:22:13 10° SSE 17:27:03 27° ESE 17:27:03 27° ESE
Timation 2 Rocket 3.9 17:21:39 10° S 17:27:30 60° ESE 17:30:41 28° NE
Cosmos 1844 3.8 17:22:06 10° S 17:27:44 57° ESE 17:30:24 30° NE
Cosmos 1954 Rocket 4.1 17:23:48 10° N 17:28:54 48° ENE 17:31:28 27° SE
CZ-4 R/B 4.3 17:25:12 10° SSE 17:29:16 85° ENE 17:33:23 10° NNW
Lacrosse 5 1.8 17:24:56 10° SW 17:29:57 75° SE 17:31:43 41° ENE
Cosmos-2242 4.3 17:26:19 10° SSW 17:30:24 40° WNW 17:34:31 10° N
COSMO-SKYMED 1 2.5 17:29:30 19° NNE 17:32:35 87° E 17:36:56 10° SSW
Lacrosse 4 Rocket 2.7 17:30:29 10° NW 17:34:34 42° WSW 17:38:31 10° S
Cosmos 1833 Rocket 4.4 17:31:49 10° N 17:33:48 16° NNE 17:33:48 16° NNE
APEX 4.5 17:36:57 10° WSW 17:39:24 23° WNW 17:39:58 22° NW
Cosmos 1553 Rocket 4.0 17:34:16 10° N 17:40:29 56° ENE 17:46:33 10° SSE
Cosmos 2221 2.3 17:36:37 10° S 17:40:48 67° E 17:41:02 65° ENE
USA 234 3.3 17:37:35 29° NE 17:41:11 80° NW 17:47:43 10° WSW
Cosmos 2344 3.6 17:34:33 10° SW 17:42:09 75° NW 17:47:04 23° NNE
Cosmos 1818 4.0 17:40:39 10° SW 17:46:00 59° NW 17:48:46 28° NNE
Cosmos 1190 Rocket 3.9 17:41:04 10° NNW 17:46:25 88° WSW 17:51:42 10° SSE
Cosmos 2026 Rocket 4.1 17:40:47 10° SSW 17:47:01 76° W 17:53:24 10° N
Cosmos 1371 Rocket 3.9 17:45:36 10° SSW 17:50:49 84° ESE 17:52:32 44° NNE
NOAA 15 4.5 17:48:03 10° SSE 17:53:19 68° ENE 17:58:35 10° N
H-2A R/B 4.5 17:57:50 10° SSW 17:59:18 11° S 18:01:08 10° SSE
Cosmos 1844 Rocket 2.8 17:54:12 10° SSW 17:59:45 72° WNW 18:02:02 36° NNE
Meteor 1-26 Rocket 4.2 17:54:49 10° SSW 18:00:21 83° W 18:04:18 21° N
Cosmos 2263 Rocket 4.4 17:56:35 10° W 18:00:30 19° NW 18:04:27 10° N
Cosmos 1766 Rocket 3.7 18:00:43 10° NNW 18:05:03 69° W 18:09:20 10° S
Cosmos 1420 Rocket 4.2 18:01:36 10° SSW 18:06:49 69° WNW 18:08:27 43° N
ADEOS 4.0 18:04:01 10° S 18:09:10 60° WSW 18:14:21 10° NNW
Cosmos 1624 Rocket 4.3 18:09:27 10° SSW 18:14:38 65° WNW 18:15:39 53° NNW
Cosmos 1417 Rocket 4.5 18:18:36 10° N 18:32:59 - S 18:24:06 68° NNE
SL-08 R/B 4.5 18:25:44 33° NNW 18:26:57 39° WNW 18:31:16 10° SW
BREEZE-M DEB 4.5 18:28:02 10° WSW 18:48:49 83° NNW 18:49:09 80° NNE
ATLAS 2AS CENTAUR R/B 3.1 18:49:36 10° NW 18:56:14 54° WSW 18:56:38 53° SW
COSMOS 2455 4.2 19:06:47 10° SW 19:10:14 34° WSW 19:10:14 34° WSW
Lacrosse 5 4.1 19:08:49 10° W 19:10:57 21° WNW 19:10:57 21° WNW
USA 234 4.4 19:24:56 35° NW 19:24:56 35° NW 19:29:35 10° W
